Tracking 28790 objects as of 18-Apr-2024
HD Live streaming from Space Station
objects crossing your sky now

CZ-2C DEB

Track CZ-2C DEB now!
10-day predictions


NORAD ID: 40288
Int'l Code: 2014-066C
Perigee: 688.8 km
Apogee: 942.6 km
Inclination: 97.9 °
Period: 101.1 minutes
Semi major axis: 7186 km
RCS: Unknown
Launch date: October 27, 2014
Source: People's Republic of China (PRC)
Launch site: Jiuquan Satellite Launch Center, China (JSC)

Note: This is SATELLITE DEBRIS
Your satellite tracking list
Your tracking list is empty




NASA's NSSDC Master Catalog

Two Line Element Set (TLE):
1 40288U 14066C   24109.49417277  .00004531  00000-0  16592-2 0  9994
2 40288  97.9013 289.1218 0176598  44.4952 317.0258 14.24979527491446
Source of the keplerian elements: AFSPC